Salina, KS

4:26 AM CST on February 25, 2018 (GMT -0600)
Salina Municipal

Weather History for KSLN - December, 2012

Change the Weather History Date:

Friday, December 14, 2012

  Actual Average Record
Temperature  
Mean Temperature 47 °F 32 °F  
Max Temperature 59 °F 42 °F 69 °F (1933)
Min Temperature 34 °F 22 °F -10 °F (1963)
Degree Days  
Heating Degree Days 18 33  
Month to date heating degree days 333 435  
Since 1 July heating degree days 1168 1387  
Cooling Degree Days 0 0  
Month to date cooling degree days 0 0  
Year to date cooling degree days 2051 1647  
Moisture  
Dew Point 36 °F    
Average Humidity 59    
Maximum Humidity 71    
Minimum Humidity 46    
Precipitation  
Precipitation 0.05 in 0.03 in 0.56 in (1902)
Month to date precipitation 0.06 0.49  
Year to date precipitation 17.96 31.05  
Sea Level Pressure  
Sea Level Pressure 29.80 in    
Wind  
Wind Speed 14 mph (SSE)    
Max Wind Speed 26 mph    
Max Gust Speed 36 mph    
Visibility 10 miles    
Events Rain , Thunderstorm    
T = Trace of Precipitation, MM = Missing Value Source: NWS Daily Summary

Daily Weather History Graph

Daily Weather History Graph

Search for Another Location

Airport or City:

Trip Planner

Search our weather history database for the weather conditions in past years. The results will help you decide how hot, cold, wet, or windy it might be!

Date:

Astronomy

Dec. 14, 2012 Rise Set
Actual Time 7:41 AM CST 5:09 PM CST
Civil Twilight 7:11 AM CST 5:39 PM CST
Nautical Twilight 6:38 AM CST 6:13 PM CST
Astronomical Twilight 6:05 AM CST 6:45 PM CST
Moon 8:47 AM CST (12/14) 7:03 PM CST (12/14)
Length of Visible Light 10h 28m
Length of Day
9h 28m
Waxing Crescent, 3% of the Moon is Illuminated
Dec 14
Waxing Crescent
Dec 19
First Quarter
Dec 28
Full
Jan 4
Last Quarter
Jan 11
New

Hourly Weather History & Observations

Time (CST) Temp. Windchill Dew Point Humidity Pressure Visibility Wind Dir Wind Speed Gust Speed Precip Events Conditions
12:53 AM 37.0 °F 33.3 °F 25.0 °F 62% 30.01 in 10.0 mi South 4.6 mph - N/A   Clear
1:53 AM 37.9 °F 32.1 °F 26.1 °F 62% 29.99 in 10.0 mi South 8.1 mph - N/A   Clear
2:53 AM 39.0 °F 32.8 °F 27.0 °F 62% 29.98 in 10.0 mi South 9.2 mph - N/A   Clear
3:53 AM 37.9 °F 32.1 °F 28.0 °F 68% 29.98 in 10.0 mi South 8.1 mph - N/A   Clear
4:53 AM 41.0 °F 36.4 °F 28.9 °F 62% 29.97 in 10.0 mi South 6.9 mph - N/A   Clear
5:53 AM 37.0 °F 32.4 °F 28.0 °F 70% 29.98 in 10.0 mi South 5.8 mph - N/A   Clear
6:53 AM 41.0 °F 33.9 °F 28.9 °F 62% 29.97 in 10.0 mi South 12.7 mph - N/A   Clear
7:53 AM 41.0 °F 34.3 °F 28.0 °F 60% 29.96 in 10.0 mi South 11.5 mph - N/A   Clear
8:53 AM 44.1 °F 36.8 °F 30.0 °F 58% 29.95 in 10.0 mi South 16.1 mph - N/A   Clear
9:53 AM 46.9 °F - 30.9 °F 54% 29.95 in 10.0 mi South 15.0 mph 25.3 mph N/A   Clear
10:53 AM 50.0 °F - 32.0 °F 50% 29.93 in 10.0 mi South 18.4 mph - N/A   Clear
11:53 AM 54.0 °F - 34.0 °F 47% 29.89 in 10.0 mi South 13.8 mph 23.0 mph N/A   Clear
12:53 PM 55.9 °F - 35.1 °F 45% 29.85 in 10.0 mi South 16.1 mph 21.9 mph N/A   Mostly Cloudy
1:53 PM 57.9 °F - 37.9 °F 47% 29.80 in 10.0 mi South 17.3 mph 21.9 mph N/A   Mostly Cloudy
2:53 PM 57.9 °F - 39.0 °F 49% 29.77 in 10.0 mi South 18.4 mph 27.6 mph N/A   Mostly Cloudy
3:21 PM 57.2 °F - 39.2 °F 51% 29.76 in 10.0 mi SSE 19.6 mph 27.6 mph N/A   Overcast
3:53 PM 55.9 °F - 39.0 °F 53% 29.76 in 10.0 mi South 16.1 mph - N/A   Overcast
4:53 PM 53.1 °F - 39.9 °F 61% 29.74 in 10.0 mi SSE 15.0 mph - 0.00 in   Overcast
5:53 PM 52.0 °F - 42.1 °F 69% 29.73 in 10.0 mi SSE 11.5 mph - 0.00 in   Overcast
6:53 PM 52.0 °F - 43.0 °F 71% 29.71 in 10.0 mi South 15.0 mph 23.0 mph 0.00 in   Overcast
7:53 PM 50.0 °F - 42.1 °F 74% 29.68 in 10.0 mi SSE 19.6 mph 27.6 mph 0.00 in Rain Light Rain
8:07 PM 50.0 °F - 42.8 °F 76% 29.66 in 8.0 mi SSE 18.4 mph - 0.01 in Rain , Thunderstorm Thunderstorms and Rain
8:41 PM 48.2 °F - 42.8 °F 82% 29.63 in 10.0 mi SE 11.5 mph - 0.01 in   Overcast
8:53 PM 48.0 °F - 42.1 °F 80% 29.61 in 10.0 mi SE 11.5 mph - 0.01 in   Overcast
9:39 PM 46.4 °F 40.4 °F 42.8 °F 87% 29.57 in 5.0 mi SE 13.8 mph - 0.03 in Rain Light Rain
9:53 PM 48.0 °F - 44.1 °F 86% 29.58 in 7.0 mi SSE 23.0 mph 27.6 mph 0.04 in Rain Light Rain
10:53 PM 46.0 °F 38.0 °F 42.1 °F 86% 29.48 in 10.0 mi SSE 21.9 mph 29.9 mph 0.00 in   Overcast
11:53 PM 48.0 °F - 44.1 °F 86% 29.45 in 10.0 mi South 19.6 mph 33.4 mph N/A   Overcast